Regional Weather Roundup
Issued by NWS Wakefield, VA

Home | Current Version | Previous Version | Text Only | Print | Product List | Glossary On
Versions: 1 2 3 4 5 6 7 8 9 10 11 12 13 14 15 16 17 18 19 20 21 22 23 24 25 26 27 28 29 30 31 32 33 34 35 36 37 38 39 40 41 42 43 44 45 46 47 48 49
000
ASUS41 KAKQ 310510
RWRAKQ

REGIONAL WEATHER ROUNDUP
NATIONAL WEATHER SERVICE WAKEFIELD VA
1200 AM EST SAT JAN 31 2015

Note: "fair" indicates few or no clouds below 12,000 feet with no
significant weather and/or obstructions to visibility. * = Denotes
station may not report precipitation (e.g., rain,snow,etc.),
thunder or fog.

VAZ042-051-052>054-056-310600-
NORTHERN VIRGINIA

CITY           SKY/WX    TMP DP  RH WIND       PRES   REMARKS
WASH NATIONAL  CLEAR     23   3  42 NW15G25   30.28R WCI  10
DULLES         CLEAR     19   3  49 NW17G26   30.28R WCI   4
FORT BELVOIR   CLEAR     21   4  47 NW16G24   30.29R WCI   7
QUANTICO       CLEAR     23   4  44 N22G35    30.30S WCI   8
FREDERICKSBRG* CLEAR     25   6  45 NW9G25    30.28R
STAFFORD*      CLEAR     22   4  47 NW10G18   30.32S WCI  11
WARRENTON      CLEAR     22  12  64 NW14      30.27F WCI  10
CULPEPER*      CLEAR     21   9  58 N3        30.28R
MANASSAS*      CLEAR     21   9  58 NW18G26   30.28S WCI   6
LEESBURG*      CLEAR     21   9  58 NW10G21   30.28S WCI  10
WINCHESTER     CLEAR     19   3  49 NW15G24   30.28S WCI   5
FRONT ROYAL*   FAIR      21   5  49 N7        30.27S
LURAY*         FAIR      23   7  50 SW7       30.27R
$$

VAZ048-049-060>072-079>083-310600-
CENTRAL AND SOUTH CENTRAL VIRGINIA

CITY           SKY/WX    TMP DP  RH WIND       PRES   REMARKS
RICHMOND       CLEAR     26   9  48 N7        30.27R
CHESTERFIELD*  FAIR      21   0  39 NW7       30.27R
PETERSBURG*    CLEAR     29   7  38 NW7       30.28S
HANOVER        CLEAR     25   7  46 VRB3      30.28R
TAPPAHANNOCK*  CLEAR     25   1  35 W8        30.26F
QUINTON*       FAIR      25   8  47 N6        30.27R
CHARLOTTSVILLE CLEAR     24   5  44 NW7       30.26R
GORDONSVILLE*  FAIR      24   5  44 W3        30.26R
ORANGE*        CLEAR     25   9  50 W5        30.28R
LOUISA*        CLEAR     18   9  68 CALM      30.25R
BUMPASS*       FAIR      25   6  44 NW5       30.26R
FARMVILLE*     CLEAR     24  10  53 CALM      30.27S
CREWE*         FAIR      26   7  43 W6        30.26F
FORT PICKETT*  FAIR      24   8  49 NW3       30.27R
CHASE CITY*    FAIR      28  14  56 CALM      30.29S
CLARKSVILLE*   FAIR      28  10  47 NW5       30.29S
SOUTH HILL*    CLEAR     28   8  44 W5        30.34R
LAWRENCEVILLE* FAIR      27  10  50 W5        30.27R
EMPORIA*       CLEAR     28  10  47 W3        30.29S
$$

VAZ088>098-310600-
SOUTHEAST VIRGINIA

CITY           SKY/WX    TMP DP  RH WIND       PRES   REMARKS
NORFOLK        CLEAR     29   5  36 NW12G25   30.23R WCI  19
VIRGINIA BEACH CLEAR     30   7  37 NW20G31   30.21R WCI  17
NORFOLK NAVAL  CLEAR     31   5  33 NW25G32   30.25R WCI  17
WEST POINT*    CLEAR     28   3  34 NW9       30.28R
SALUDA*        FAIR      25   7  46 NW13G30   30.24R WCI  13
NEWPORT NEWS   CLEAR     29   7  39 NW17G25   30.25R WCI  17
LANGLEY AFB    CLEAR     27   3  36 NW26G38   30.24R WCI  11
FORT EUSTIS    CLEAR     28  10  46 N13G18    30.23R WCI  17
WILLIAMSBURG*    N/A     28  10  47 N10G20    30.26R WCI  19
HR EXEC AP*    FAIR      28   9  43 NW6G17    30.26R
FRANKLIN*      CLEAR     28   9  45 NW6       30.27R
WAKEFIELD      CLEAR     28   9  44 NW6       30.26R
$$

VAZ020-022-025-037-045-310600-
WEST CENTRAL AND SOUTHWEST VIRGINIA

CITY           SKY/WX    TMP DP  RH WIND       PRES   REMARKS
STAUNTON*      CLEAR     20   6  56 NW3       30.27S
WAYNESBORO*    FAIR      20   3  48 NW6       30.23F
HOT SPRINGS VA CLEAR     10   4  77 W22G28    30.05F WCI  -9
LYNCHBURG      CLEAR     21   7  54 SE3       30.28S
DANVILLE       CLEAR     26   9  48 CALM      30.32S
SOUTH BOSTON*  FAIR      28   7  41 NW5       30.30S
MARTINSVILLE   CLEAR     25   8  48 NW5       30.31F
ROANOKE        FAIR      24   7  48 W13G24    30.31S WCI  12
BLACKSBURG     CLEAR     19   8  62 W9G17     30.29F
DUBLIN*        CLEAR     23  11  61 W10       30.28F WCI  12
MARION*        CLEAR     23   9  56 W13G23    30.29S WCI  11
HILLSVILLE*    CLEAR     21   8  56 NW15      30.22F WCI   8
RICHLANDS*     FAIR      19   8  61 NW5       30.31S
WISE*          CLEAR     21  10  63 CALM      30.32S
ABINGDON*      CLEAR     26  12  56 W5        30.34S
$$

MDZ021>025-VAZ099-100-310600-
SOUTHERN MARYLAND AND THE DELMARVA PENINSULA

CITY           SKY/WX    TMP DP  RH WIND       PRES   REMARKS
PATUXENT RIVER FAIR      24   7  48 NW22G38   30.22R WCI   9
BAY BRIDGE APT   N/A     23   5  46 NW28G35   30.23R WCI   6
LEONARDTOWN    FAIR      23   5  46 W15G22    30.24S WCI  10
DOVER          CLEAR     22   6  51 NW23G33   30.15R WCI   6
GEORGETOWN     CLEAR     24   6  46 NW13G25   30.15S WCI  12
EASTON         CLEAR     25   9  50 NW21G37   30.24R WCI  10
CAMBRIDGE      CLEAR     27   9  46 NW21G33   30.20R WCI  13
SALISBURY      CLEAR     26   7  44 NW18G35   30.17R WCI  13
OCEAN CITY     FAIR      24   9  52 NW17G26   30.14R WCI  11
WALLOPS ISLAND CLEAR     24  10  55 NW21G30   30.17R WCI   9
ACCOMACK*      PTCLDY    27  10  50 NW28G33   30.19R WCI  11
$$

NCZ012>017-030>032-310600-
NORTH CENTRAL AND EASTERN NORTH CAROLINA

CITY           SKY/WX    TMP DP  RH WIND       PRES   REMARKS
ROANOKE RAPIDS FAIR      30  12  47 NW6       30.28S
RALEIGH        PTCLDY    29   7  39 NW3       30.32R
ELIZABETH CITY CLEAR     30  12  47 NW14      30.23R WCI  19
AHOSKIE*       CLEAR     29   9  44 CALM      30.28R
EDENTON*       CLEAR     32  12  43 NW9G21    30.25R
CURRITUCK*     CLEAR     32   9  38 NW9G17    30.23R
KILL DEVIL HLS CLEAR     32  13  46 NW15G24   30.19R WCI  22
MANTEO         CLEAR     32  12  43 NW17G30   30.21R WCI  21
CAPE HATTERAS  CLEAR     35  16  45 NW17G30   30.20R WCI  25
TARBORO*       FAIR      31  10  41 NW6       30.30R
GOLDSBORO      CLEAR     39  18  41 CALM      30.18R
WASHINGTON     CLEAR     32  10  40 NW7       30.27R
GREENVILLE     CLEAR     32  10  40 NW5       30.29R
NEW BERN       CLEAR     36  10  34 NW13      30.27R
WILMINGTON     PTCLDY    34  16  47 NW8       30.28R
$$

VAZ048-310600-
ELSEWHERE

CITY           SKY/WX    TMP DP  RH WIND       PRES   REMARKS
HARRISBURG PA  PTCLDY    15   1  53 NW22      30.23S WCI  -3
BALTIMORE      CLEAR     20   1  43 NW18G30   30.23R WCI   5
ANNAPOLIS      FAIR      23   6  48 NW18G28   30.22R WCI   9
ANDREWS AFB    CLEAR     21   4  48 NW23G36   30.23R WCI   4
PHILADELPHIA   CLEAR     20   0  41 NW30G41   30.16R WCI   1
HENDERSON NC   CLEAR     28   8  42 NW8       30.29S
GREENSBORO     PTCLDY    27   7  42 CALM      30.29S
ROCKY MOUNT    CLEAR     30  10  43 NW12      30.30R WCI  20
$$

VAZ100-310600-
MARINE

STATION/POSITION TIME  TEMP    WIND        PRES    WAVE   SWELL
                       AIR SEA DIR/SP/G            HT/PER HT/PER
                 (UTC) (F)     (DEG/KT/KT) (MB)    (FT/S) (FT/S)
BRANDYWINE LGT   0500   24 35  330/ 27/ 38 1019.8R
CAPE MAY NJ      0500   25 35              1019.2R
LEWES DE         0500   25 35  310/ 30/ 34 1020.3R
15NM E FENWICK I 0500   27 40              1018.0R   8/ 6
OCEAN-CITY-INLET 0500   26 35  340/ 19/ 30 1020.0S
WACHAPREAGUE VA  0500   26 35  310/  7/ 16 1022.0R
THOMAS POINT MD  0500   23 35  310/ 21/ 24 1024.2R
GOOSES REEF MD   0500   25     VRB 25/ 29  1022.2F
COVE POINT MD    0500   22     330/ 18/ 26 1023.0S
SOLOMONS ISLAND  0500      37                N/A
BISHOPS HEAD MD  0500   24 30  320/ 18/ 27 1022.4F
PINEY POINT MD   0500          340/ 27/ 31   N/A
POTOMAC MD       0500   26     320/ 23/ 29 1022.3R
CAMBRIDGE MD     0500   26 35  320/ 21/ 29 1022.6R
LEWISETTA VA     0500   24 35  330/ 17/ 25 1024.1R
RAPPAHANNOCK LGT 0500          310/ 32/ 36 1023.1R
STINGRAY PT      0500   27     330/ 23/ 31 1023.8R
YORK RVR RNG VA  0500   27     330/ 27/ 32 1023.1R
YORKTOWN VA      0500   28 39  320/ 25/ 30 1024.0R
JAMESTOWN VA     0500   27      10/ 14/ 21   N/A
DOMINION TERM VA 0500   30     340/ 16/ 26 1023.8R
KIPTOPEKE VA     0500      42  330/ 29/ 33   N/A
CHES BAY BRIDGE  0500   30 39  310/ 26/ 33 1022.7R
CAPE HENRY VA    0500   29     330/ 30/ 35 1021.6R
CHESAPEAKE LGHT  0400   30     320/ 33/ 38 1021.9R
WILLOUBY STN VA  0500   30     330/ 21/ 28 1024.1R
S CRANEY ISL VA  0500          330/ 18/ 31 1023.4R
CAPE HENRY BUOY  0500      42                N/A     7/ 5
1ST LANDING BUOY 0500   31     330/ 25/ 31 1022.3S
CAPE CHARLES BUO 0500      40                N/A     5/ 4
OFFSHORE WE BUOY 0500      43                N/A    10/ 6   2/10
64NM E OF VA BCH 0500   34 48  320/ 29/ 39 1019.2R  11/ 8
DUCK PIER NC     0500   33 43  310/ 18/ 23 1021.5R
44100 DUCK FRF   0500      44                N/A     9/ 7
44056 DUCK FRF   0500      43                N/A     6/ 6
OREGON INLET NC  0500   33 42  310/ 19/ 26 1022.1R
HATTERAS NC      0500   36 44  320/ 28/ 34 1022.9R


USA.gov is the U.S. government's official web portal to all federal, state and local government web resources and services.